TimeEST,TemperatureF,Dew PointF,Humidity,Sea Level PressureIn,VisibilityMPH,Wind Direction,Wind SpeedMPH,Gust SpeedMPH,PrecipitationIn,Events,Conditions,WindDirDegrees,DateUTC
12:54 AM,42.1,28.9,60,29.86,10.0,WNW,8.1,-,N/A,,Overcast,300,2012-11-04 04:54:00
1:22 AM,41.0,28.4,61,29.85,10.0,WNW,8.1,-,N/A,,Overcast,300,2012-11-04 05:22:00
1:49 AM,42.8,28.4,57,29.85,10.0,West,4.6,-,N/A,,Overcast,280,2012-11-04 05:49:00
1:54 AM,42.1,28.9,60,29.86,10.0,WNW,4.6,-,N/A,,Overcast,290,2012-11-04 05:54:00
1:54 AM,41.0,30.0,65,29.88,10.0,WNW,6.9,-,N/A,,Overcast,290,2012-11-04 06:54:00
2:03 AM,41.0,30.2,65,29.87,10.0,West,6.9,-,N/A,,Overcast,280,2012-11-04 07:03:00
2:49 AM,41.0,30.2,65,29.86,10.0,WNW,6.9,-,N/A,,Overcast,300,2012-11-04 07:49:00
2:54 AM,41.0,30.0,65,29.87,10.0,WNW,6.9,-,N/A,,Overcast,300,2012-11-04 07:54:00
3:38 AM,41.0,28.4,61,29.86,10.0,WNW,4.6,-,N/A,,Overcast,290,2012-11-04 08:38:00
3:54 AM,41.0,28.9,62,29.88,10.0,WNW,5.8,-,N/A,,Overcast,290,2012-11-04 08:54:00
4:54 AM,41.0,30.0,65,29.89,10.0,West,4.6,-,N/A,,Overcast,280,2012-11-04 09:54:00
5:54 AM,41.0,30.0,65,29.91,10.0,WNW,8.1,-,N/A,,Overcast,300,2012-11-04 10:54:00
6:54 AM,41.0,28.9,62,29.92,10.0,WNW,5.8,-,N/A,,Overcast,300,2012-11-04 11:54:00
7:54 AM,41.0,28.9,62,29.94,10.0,WNW,8.1,-,N/A,,Overcast,300,2012-11-04 12:54:00
8:54 AM,41.0,28.0,60,29.94,10.0,NW,10.4,-,N/A,,Overcast,310,2012-11-04 13:54:00
9:54 AM,42.1,28.0,58,29.93,10.0,Calm,Calm,-,N/A,,Overcast,0,2012-11-04 14:54:00
10:54 AM,42.1,28.0,58,29.94,10.0,WNW,10.4,-,N/A,,Overcast,290,2012-11-04 15:54:00
11:54 AM,42.1,27.0,55,29.94,10.0,West,12.7,-,N/A,,Overcast,280,2012-11-04 16:54:00
12:27 PM,42.8,26.6,53,29.92,10.0,WNW,8.1,-,N/A,,Overcast,300,2012-11-04 17:27:00
12:54 PM,42.1,27.0,55,29.93,10.0,West,8.1,-,N/A,,Overcast,270,2012-11-04 17:54:00
1:54 PM,43.0,27.0,53,29.93,10.0,WNW,9.2,20.7,N/A,,Overcast,290,2012-11-04 18:54:00
2:54 PM,43.0,27.0,53,29.93,10.0,West,9.2,-,N/A,,Overcast,280,2012-11-04 19:54:00
3:54 PM,43.0,27.0,53,29.93,10.0,West,5.8,-,N/A,,Overcast,280,2012-11-04 20:54:00
4:54 PM,42.1,26.1,53,29.94,10.0,NNW,5.8,-,N/A,,Overcast,330,2012-11-04 21:54:00
5:54 PM,42.1,26.1,53,29.95,10.0,WNW,4.6,-,N/A,,Overcast,300,2012-11-04 22:54:00
6:54 PM,39.9,27.0,60,29.96,10.0,Variable,5.8,-,N/A,,Overcast,0,2012-11-04 23:54:00
7:54 PM,39.0,25.0,57,29.98,10.0,North,6.9,-,N/A,,Overcast,10,2012-11-05 00:54:00
8:54 PM,37.9,24.1,57,29.99,10.0,Variable,6.9,-,N/A,,Overcast,0,2012-11-05 01:54:00
9:54 PM,37.0,23.0,57,30.00,10.0,North,6.9,-,N/A,,Overcast,360,2012-11-05 02:54:00
10:54 PM,37.0,21.9,54,29.99,10.0,NNE,4.6,-,N/A,,Overcast,30,2012-11-05 03:54:00